Onalaska, WI

9:27 AM CST on February 19, 2017 (GMT -0600)
La Crosse Municipal

Weather History for KLSE - February, 2014

Change the Weather History Date:

Wednesday, February 5, 2014

  Actual Average Record
Temperature  
Mean Temperature 2 °F 19 °F  
Max Temperature 12 °F 28 °F 54 °F (1946)
Min Temperature -8 °F 10 °F -24 °F (1895)
Degree Days  
Heating Degree Days 63 46  
Month to date heating degree days 298 230  
Since 1 July heating degree days 4945 4549  
Cooling Degree Days 0 0  
Month to date cooling degree days 0 0  
Year to date cooling degree days 0 0  
Moisture  
Dew Point -3 °F    
Average Humidity 70    
Maximum Humidity 78    
Minimum Humidity 61    
Precipitation  
Precipitation 0.01 in 0.04 in 0.52 in (1908)
Month to date precipitation 0.01 0.18  
Year to date precipitation 0.99 1.30  
Snow  
Snow 0.10 in 0.30 in 5.20 in (1971)
Month to date snowfall 0.1 1.7  
Since 1 July snowfall 29.5 28.0  
Snow Depth 12.00 in    
Sea Level Pressure  
Sea Level Pressure 30.49 in    
Wind  
Wind Speed 11 mph (NW)    
Max Wind Speed 17 mph    
Max Gust Speed 20 mph    
Visibility 9 miles    
Events Snow    
T = Trace of Precipitation, MM = Missing Value Source: NWS Daily Summary

Daily Weather History Graph

Daily Weather History Graph

Search for Another Location

Airport or City:

Trip Planner

Search our weather history database for the weather conditions in past years. The results will help you decide how hot, cold, wet, or windy it might be!

Date:

Astronomy

Feb. 05, 2014 Rise Set
Actual Time 7:17 AM CST 5:21 PM CST
Civil Twilight 6:47 AM CST 5:51 PM CST
Nautical Twilight 6:12 AM CST 6:25 PM CST
Astronomical Twilight 5:39 AM CST 6:59 PM CST
Moon 10:18 AM CST (2/5) No Moon Set
Length of Visible Light 11h 04m
Length of Day
10h 03m
Waxing Crescent, 39% of the Moon is Illuminated
Feb 5
Waxing Crescent
Feb 6
First Quarter
Feb 14
Full
Feb 22
Last Quarter
Mar 1
New

Hourly Weather History & Observations

Time (CST) Temp. Windchill Dew Point Humidity Pressure Visibility Wind Dir Wind Speed Gust Speed Precip Events Conditions
12:53 AM 10.9 °F -4.7 °F 1.0 °F 64% 30.39 in 10.0 mi NNW 13.8 mph - N/A   Overcast
1:53 AM 10.0 °F -5.2 °F -0.9 °F 61% 30.41 in 10.0 mi NNW 12.7 mph - N/A   Overcast
2:53 AM 10.0 °F -5.2 °F -0.0 °F 64% 30.40 in 10.0 mi NW 12.7 mph - N/A   Overcast
3:53 AM 9.0 °F -7.3 °F 1.0 °F 70% 30.40 in 4.0 mi NW 13.8 mph - 0.00 in Snow Light Snow
4:53 AM 7.0 °F -10.4 °F -0.0 °F 73% 30.42 in 10.0 mi NW 15.0 mph - 0.00 in   Overcast
5:53 AM 7.0 °F -9.8 °F -0.0 °F 73% 30.43 in 10.0 mi NNW 13.8 mph - N/A   Overcast
6:53 AM 6.1 °F -11.6 °F -0.0 °F 76% 30.45 in 6.0 mi NNW 15.0 mph - 0.00 in Snow Light Snow
7:53 AM 6.1 °F -10.9 °F -2.0 °F 69% 30.47 in 10.0 mi NNW 13.8 mph - 0.00 in   Overcast
8:53 AM 5.0 °F -11.6 °F -2.0 °F 73% 30.50 in 10.0 mi NW 12.7 mph - N/A   Overcast
9:09 AM 6.1 °F -10.9 °F -2.0 °F 69% 30.42 in 10.0 mi NNW 13.8 mph - N/A   Overcast
9:19 AM 6.1 °F -10.9 °F -2.0 °F 69% 30.43 in 10.0 mi NNW 13.8 mph - N/A   Overcast
9:53 AM 6.1 °F -10.2 °F -2.0 °F 69% 30.51 in 10.0 mi NNW 12.7 mph - N/A   Overcast
10:53 AM 7.0 °F -9.8 °F -0.9 °F 70% 30.52 in 10.0 mi NW 13.8 mph - N/A   Overcast
11:53 AM 7.0 °F -9.8 °F -0.9 °F 70% 30.51 in 8.0 mi NW 13.8 mph - N/A   Overcast
12:53 PM 7.0 °F -10.4 °F -2.0 °F 67% 30.51 in 10.0 mi NW 15.0 mph - N/A   Overcast
1:53 PM 8.1 °F -9.0 °F -0.9 °F 67% 30.51 in 10.0 mi NW 15.0 mph - N/A   Overcast
2:53 PM 8.1 °F -7.7 °F -0.9 °F 67% 30.52 in 8.0 mi NW 12.7 mph - 0.00 in   Overcast
3:14 PM 7.0 °F -9.8 °F -0.9 °F 70% 30.44 in 6.0 mi NW 13.8 mph - 0.00 in   Haze
3:28 PM 7.0 °F -10.4 °F -0.9 °F 70% 30.45 in 9.0 mi NW 15.0 mph - 0.00 in   Overcast
3:53 PM 7.0 °F -9.1 °F -2.0 °F 67% 30.53 in 10.0 mi NW 12.7 mph - 0.00 in   Overcast
4:33 PM 7.0 °F -6.6 °F -2.0 °F 67% 30.46 in 10.0 mi NW 9.2 mph - N/A   Overcast
4:53 PM 6.1 °F -6.8 °F -2.9 °F 67% 30.55 in 10.0 mi NW 8.1 mph - N/A   Overcast
5:33 PM 3.9 °F -9.4 °F -4.0 °F 70% 30.48 in 10.0 mi NNW 8.1 mph - N/A   Overcast
5:53 PM 3.0 °F -11.5 °F -6.0 °F 66% 30.56 in 10.0 mi NNW 9.2 mph - N/A   Mostly Cloudy
6:18 PM 3.0 °F -9.3 °F -6.0 °F 66% 30.48 in 10.0 mi NW 6.9 mph - N/A   Overcast
6:53 PM 3.0 °F -10.5 °F -6.0 °F 66% 30.57 in 10.0 mi NW 8.1 mph - N/A   Overcast
7:53 PM 3.0 °F -10.5 °F -6.0 °F 66% 30.58 in 10.0 mi NW 8.1 mph - N/A   Overcast
8:13 PM 1.0 °F -10.3 °F -7.1 °F 69% 30.49 in 10.0 mi NW 5.8 mph - N/A   Scattered Clouds
8:53 PM -0.9 °F -14.1 °F -8.0 °F 72% 30.58 in 10.0 mi NW 6.9 mph - N/A   Clear
9:53 PM -2.9 °F -13.3 °F -11.0 °F 68% 30.58 in 10.0 mi West 4.6 mph - N/A   Partly Cloudy
10:53 PM -4.0 °F - -9.0 °F 79% 30.56 in 10.0 mi Calm Calm - N/A   Clear
11:53 PM -5.1 °F -15.8 °F -11.9 °F 72% 30.56 in 10.0 mi WNW 4.6 mph - N/A   Clear